Location: *
(46.4000°N, 12.6667°E)
Time: 11:06:43
(UTC+00:00)

Cosmos 2369 Rocket - Pass Details

Date: 09 April 2020
Orbit: 829 x 852 km, 71.0° (Epoch: 24 May)

Event Time Altitude Azimuth Distance (km) Brightness Sun altitude
Rises 18:43:48 0° 324° (NW) 3,420 6.5 -9.8°
Reaches altitude 10° 18:46:35 10° 312° (NW) 2,477 5.9 -10.2°
Maximum altitude 18:51:14 27° 257° (WSW) 1,576 4.3 -10.9°
Drops below altitude 10° 18:55:52 10° 202° (SSW) 2,449 4.6 -11.7°
Sets 18:58:37 0° 190° (S) 3,375 5.2 -12.1°
